Location: Jaworzyna Śląska
(50.9128°N, 16.4318°E)
Time: 04:57:50
(UTC+01:00)

ISS - Visible Passes

Search period start: 24 November 2017 00:00
Search period end: 04 December 2017 00:00
Orbit: 402 x 407 km, 51.6° (Epoch: 24 November)

Date Brightness Start Highest point End Pass type
(mag) Time Alt. Az. Time Alt. Az. Time Alt. Az.
28 Nov -1.5 18:16:44 10° SSW 18:17:50 17° S 18:17:50 17° S visible
29 Nov -1.7 17:25:16 10° S 17:27:14 15° SE 17:27:45 15° SE visible
29 Nov -0.7 18:59:58 10° WSW 19:00:25 13° SW 19:00:25 13° SW visible
30 Nov -2.7 18:07:48 10° SW 18:10:15 35° S 18:10:15 35° S visible
01 Dec -2.4 17:15:50 10° SSW 17:18:38 26° SSE 17:20:01 20° ESE visible
01 Dec -1.1 18:51:33 10° WSW 18:52:40 20° WSW 18:52:40 20° WSW visible
02 Dec -1.7 16:24:09 10° S 16:26:26 17° SE 16:28:42 10° E visible
02 Dec -3.7 17:59:12 10° WSW 18:02:23 64° S 18:02:23 64° S visible
03 Dec -3.2 17:06:57 10° SW 17:10:06 45° SSE 17:12:04 20° E visible
03 Dec -1.5 18:43:12 10° W 18:44:42 25° W 18:44:42 25° W visible
